Home   Weather   Pomona   Past weeks
Flag for USA

Past Weather in Pomona, California, USA — Yesterday and Last 2 Weeks

Now
68 °F

Clear.


Feels Like: 68 °F
Forecast: 90 / 64 °F
Wind: 5 mph from West

Location: Chino Airport

Current Time: Jul 17, 2019 at 12:19:39 am

Latest Report: Jul 16, 2019 at 10:53 pm


Visibility: 10 mi

Pressure: 29.85 "Hg

Humidity: 82%

Dew Point: 62 °F

Location of PomonaLocation

Past Weather in Pomona — Graph

°F

Pomona Temperature Yesterday

Maximum temperature yesterday: 94 °F (at 1:53 pm)
Minimum temperature yesterday: 64 °F (at 5:53 am)
Average temperature yesterday: 78 °F

High & Low Weather Summary for the Past Weeks

 TemperatureHumidityPressure
High98 °F (Jul 12, 1:53 pm)100% (Jul 3, 5:53 am)30.06 "Hg (Jul 3, 5:53 am)
Low59 °F (Jul 2, 4:53 am)19% (Jul 14, 2:53 pm)29.75 "Hg (Jul 12, 5:53 pm)
Average73 °F65%29.93 "Hg
* Reported Jul 1 10:53 pm — Jul 16 10:53 pm, Pomona. Weather by CustomWeather, © 2019

Note: Actual official high and low records may vary slightly from our data, if they occured in-between our weather recording intervals... More about our weather records

Advertising

Pomona Weather History for the Previous 24 Hours

Scroll right to see more
 ConditionsComfort  
Time TempWeatherWind HumidityBarometerVisibility
10:53 pm
Tue, Jul 16
68 °FClear.5 mph82%29.85 "Hg10 mi
9:53 pm68 °FClear.6 mph82%29.84 "Hg10 mi
8:53 pm72 °FClear.12 mph71%29.82 "Hg10 mi
7:53 pm76 °FSunny.12 mph60%29.81 "Hg10 mi
6:53 pm82 °FSunny.13 mph48%29.80 "Hg10 mi
5:53 pm86 °FSunny.14 mph39%29.79 "Hg10 mi
4:53 pm90 °FSunny.15 mph34%29.80 "Hg10 mi
3:53 pm92 °FSunny.16 mph33%29.80 "Hg10 mi
2:53 pm93 °FSunny.16 mph31%29.82 "Hg10 mi
1:53 pm94 °FSunny.12 mph29%29.83 "Hg10 mi
12:53 pm92 °FSunny.9 mph29%29.84 "Hg10 mi
11:53 am93 °FSunny.8 mph28%29.84 "Hg10 mi
10:53 am89 °FSunny.6 mph28%29.84 "Hg10 mi
9:53 am85 °FSunny.No wind37%29.84 "Hg10 mi
8:53 am79 °FSunny.No wind48%29.85 "Hg10 mi
7:53 am73 °FSunny.3 mph66%29.84 "Hg10 mi
6:53 am67 °FSunny.No wind90%29.83 "Hg10 mi
5:53 am64 °FSunny.No wind90%29.82 "Hg7 mi
4:53 am65 °FClear.No wind91%29.81 "Hg8 mi
3:53 am66 °FClear.No wind84%29.80 "Hg9 mi
2:53 am66 °FClear.No wind87%29.81 "Hg8 mi
1:53 am68 °FClear.No wind82%29.82 "Hg10 mi
12:53 am68 °FClear.No wind78%29.83 "Hg10 mi
Weather by CustomWeather, © 2019

See weather overview